AirNav   Everest Fuels
 
 425 users online  

10AZ Farm Ag Airport
Buckeye, Arizona, USA

GOING TO BUCKEYE?


FAA INFORMATION EFFECTIVE 21 MAY 2020

Location

FAA Identifier: 10AZ
Lat/Long: 33-22-00.1500N 112-37-07.6010W
33-22.002500N 112-37.126683W
33.3667083,-112.6187781
(estimated)
Elevation: 860 ft. / 262 m (estimated)
Variation: 13E (1985)
From city: 2 miles W of BUCKEYE, AZ
Time zone: UTC -7 (year round; does not observe DST)
Zip code: 85326

Airport Operations

Airport use: Private use. Permission required prior to landing
Control tower: no
ARTCC: ALBUQUERQUE CENTER
FSS: PRESCOTT FLIGHT SERVICE STATION
Attendance: MON-SAT 0800-1700
Pattern altitude: 1660 ft. MSL
Wind indicator: yes
Segmented circle: no
Lights: SS-SR

Airport Communications

WX AWOS-3 at BXK (5 nm NW): 119.625 (623-386-7627)
WX ASOS at LUF (16 nm NE): 267.4 (623-877-8609)
WX AWOS-3 at GEU (19 nm NE): 119.425 (623-877-8609)

Nearby radio navigation aids

VOR radial/distance  VOR name  Freq  Var
BXKr103/11.5BUCKEYE VORTAC110.6014E
GBNr352/24.8GILA BEND VORTAC116.6014E
PXRr251/32.7PHOENIX VORTAC115.6012E

Airport Services

Fuel available: 100 80
Parking: hangars
Airframe service: MINOR
Powerplant service: MINOR
Bottled oxygen: NONE
Bulk oxygen: NONE

Runway Information

Runway 8/26

Dimensions: 3407 x 150 ft. / 1038 x 46 m
CENTER 40' PAVED.
Surface: asphalt/dirt
Runway edge lights: low intensity
RUNWAY 8  RUNWAY 26
Elevation: 860.0 ft.860.0 ft.
Traffic pattern: leftleft
Runway end identifier lights: nono
Obstructions: trees, 350 ft. from runway, 3:1 slope to clearpline, 1450 ft. from runway, 27:1 slope to clear
5' FENCE 200' FROM THR.

Airport Ownership and Management from official FAA records

Ownership: Privately-owned
Owner: OOPS PROPERTIES LLC
PO BOX 428
BUCKEYE, AZ 85326
Phone (623) 386-4312
Manager: HAL HEIDEN
PO BOX 428
BUCKEYE, AZ 85326
Phone (602) 377-2416

Airport Operational Statistics

Aircraft based on the field: 15
Single engine airplanes: 15
    
Aircraft operations: avg 68/day
97% local general aviation
3% transient general aviation

Additional Remarks

FOR CD CTC LUKE APCH AT 623-856-7361. IF UNA, CTC PHOENIX APCH AT 602-306-2565.

Instrument Procedures

There are no published instrument procedures at 10AZ.

Some nearby airports with instrument procedures:

KGYR - Phoenix Goodyear Airport (13 nm E)
KLUF - Luke Air Force Base (16 nm NE)
KGEU - Glendale Municipal Airport (19 nm NE)
KPHX - Phoenix Sky Harbor International Airport (31 nm E)
KDVT - Phoenix Deer Valley Airport (33 nm NE)
 
Loc | Ops | Rwys | IFR | FBO | Links
Com | Nav | Svcs | Stats | Notes
Area around 10AZ (Farm Ag Airport)
 
Road maps at: MapQuest Bing Google
 
Aerial photo
WARNING: Photo may not be current or correct
Aerial photo of 10AZ (Farm Ag Airport)
Do you have a better or more recent aerial photo of Farm Ag Airport that you would like to share? If so, please send us your photo.

 
Sectional chart

 
Airport distance calculator
Flying to Farm Ag Airport? Find the distance to fly.

From to 10AZ

Sunrise and sunset
Times for 06-Jun-2020
 Local
(UTC-7)
 Zulu
(UTC)
Morning civil twilight04:5311:53
Sunrise05:2212:22
Sunset19:3702:37
Evening civil twilight20:0603:06

Current date and time
Zulu (UTC)  07-Jun-2020 06:57:59
Local (UTC-7)  06-Jun-2020 23:57:59
 
METAR
KBXK 
5nm NW 
070655Z AUTO 22006KT 9SM CLR 24/08 A2973 RMK A01
KGYR 
13nm E 
070347Z 26005KT 10SM SKC 29/09 A2972 RMK LAST
KLUF 
16nm NE 
070558Z AUTO 24004KT 10SM CLR 27/07 A2971 RMK AO2 SLP049 T02710070 10322 20271 50004
KGEU 
19nm NE 
070147Z 21008KT 10SM SKC 32/07 A2973 RMK LAST
TAF
NOTAMs
Click for the latest NOTAMs
NOTAMs are issued by the DoD/FAA and will open in a separate window not controlled by AirNav.

 

 
 

Would you like to see your business listed on this page?

 If your business provides an interesting product or service to pilots, flight crews, aircraft, or users of the Farm Ag Airport, you should consider listing it here.  To start the listing process, click on the button below
 
Add a business
 

Other Pages about Farm Ag Airport

Update a link
 
Copyright © AirNav, LLC. All rights reserved. Privacy Policy  Contact